Regional Weather Roundup
Issued by NWS

Home | Current Version | Previous Version | Text Only | Print | Product List | Glossary On
Versions: 1 2 3 4 5 6 7 8 9 10 11 12 13 14 15 16 17 18 19 20 21 22 23 24 25 26 27 28 29 30 31 32 33 34 35 36 37 38 39 40 41 42 43 44 45 46 47 48 49 50
000
ASUS44 KFWD 020401
RWRTX
NORTH TEXAS HOURLY WEATHER ROUNDUP
NATIONAL WEATHER SERVICE FORT WORTH TX
1100 PM CDT TUE SEP 01 2015

NOTE: "FAIR" INDICATES FEW OR NO CLOUDS BELOW 12,000 FEET WITH NO
SIGNIFICANT WEATHER AND/OR OBSTRUCTIONS TO VISIBILITY.

TXZ118-119-020500-
DALLAS/FORT WORTH METROPLEX

CITY           SKY/WX    TMP DP  RH WIND       PRES   REMARKS
DFW AIRPORT    PTCLDY    84  65  52 SE14      30.02R
DALLAS LOVE    PTCLDY    83  67  58 SE16      30.03R
FTW MEACHAM    CLEAR     85  66  53 SE13      30.02R
DAL-EXECUTIVE  CLEAR     81  66  60 SE10      30.03R
FTW-ALLIANCE   PTCLDY    83  67  58 S7        30.02R
FTW-NAS-JRB    CLEAR     85  67  54 SE14      30.02R
ARLINGTON      CLEAR     84  65  52 SE16      30.02S
GRAND PRAIRIE  CLEAR     83  68  60 SE8G17    30.04S
MESQUITE       CLEAR     79  67  65 SE8       30.04S
LANCASTER      CLEAR     81  65  57 SE10      30.05R
$$

TXZ091>094-102>105-117-120-121-131>134-020500-
NORTH CENTRAL TEXAS

CITY           SKY/WX    TMP DP  RH WIND       PRES   REMARKS
SHRMAN/DENISON CLEAR     82  68  64 SE13      30.05R
BRIDGEPORT     CLEAR     80  66  61 S7        30.04S
DENTON         CLEAR     83  66  56 SE13      30.02R
MCKINNEY       CLEAR     80  68  66 SE8       30.04R
ROCKWALL       CLEAR     78  69  72 CALM      30.04R
TERRELL        CLEAR     77  69  76 SE6       30.05R
WAXAHACHIE     CLEAR     80  68  66 SE8       30.05S
$$

TXZ083>090-098>101-113>116-127>130-139>142-154-155-020500-
WESTERN NORTH TEXAS

CITY           SKY/WX    TMP DP  RH WIND       PRES   REMARKS
WICHITA FALLS  CLEAR     81  62  52 SE13      30.01R
WF-KICKAPOO    CLEAR     82  63  51 SE8       30.02S
VERNON         CLEAR     84  54  34 SE13      30.01R
ABILENE        CLEAR     80  60  50 SE14      30.04R
ABILENE-DYESS  CLEAR     81  61  50 SE8       30.03R
MINERAL WELLS  CLEAR     79  66  64 SE6       30.01R
STEPHENVILLE   CLEAR     79  64  60 S7        30.07R
COMANCHE       CLEAR     80  67  64 SE12      30.05R
$$

TXZ143>147-156>162-174-175-020500-
CENTRAL TEXAS

CITY           SKY/WX    TMP DP  RH WIND       PRES   REMARKS
WACO           CLEAR     80  66  62 S15       30.04R
WACO-TSTC        N/A     77  66  69 S6        30.04R
WACO-MCGREGOR  CLEAR     78  67  68 SE12      30.05R
CORSICANA      CLEAR     79  69  71 SE8       30.06R
MEXIA          CLEAR     76  68  75 E10       30.04S
HEARNE         CLEAR     75  69  81 SE3       30.05S
TEMPLE         CLEAR     75  64  69 SE10      30.05R
KILLEEN        CLEAR     77  68  72 SE10      30.04S
KILLEEN-SKYLRK CLEAR     79  64  61 SE9       30.03F
FORT HOOD      CLEAR     77  67  69 SE14      30.04R
HAMILTON       CLEAR     79  65  62 MISG      30.06S
$$

TXZ095>097-106>112-122>126-135>138-148>153-164>167-020500-
EAST TEXAS

CITY           SKY/WX    TMP DP  RH WIND       PRES   REMARKS
PARIS          CLEAR     75  61  60 SE3       30.06S
MINEOLA        CLEAR     73  72  94 CALM      30.06S
TYLER          CLEAR     77  69  76 SE7       30.05S
LONGVIEW       CLEAR     75  71  87 CALM      30.05R
ATHENS         CLEAR     73  66  78 SE3       30.04S
PALESTINE      CLEAR     76  69  78 SE3       30.06S
JACKSONVILLE   CLEAR     75  68  80 S3        30.08S
NACOGDOCHES    PTCLDY    72  70  94 CALM      30.05S
LUFKIN         PTCLDY    73  69  87 CALM      30.05R
$$

SUPPLEMENTAL OBSERVATIONS (CENTRAL)

CITY           SKY/WX    TMP DP  RH WIND       PRES   REMARKS
$$

SUPPLEMENTAL OBSERVATIONS (WEST)

CITY           SKY/WX    TMP DP  RH WIND       PRES   REMARKS
$$

SUPPLEMENTAL OBSERVATIONS (EAST)

CITY           SKY/WX    TMP DP  RH WIND       PRES   REMARKS
$$

SUPPLEMENTAL OBSERVATIONS ARE A COLLECTION OF AUTOMATED INSTRUMENTS
THAT ARE MAINTAINED BY A VARIETY OF FEDERAL AND STATE AGENCIES.
CERTAIN ELEMENTS...SUCH AS HUMIDITY VALUES AND SUSTAINED WIND
SPEEDS...MAY BE APPROXIMATED.




USA.gov is the U.S. government's official web portal to all federal, state and local government web resources and services.